Regional Weather Roundup
Issued by NWS

Home | Current Version | Previous Version | Graphics & Text | Print | Product List | Glossary On
Versions: 1 2 3 4 5 6 7 8 9 10 11 12 13 14 15 16 17 18 19 20 21 22 23 24 25 26 27 28 29 30 31 32 33 34 35 36 37 38 39 40 41 42 43 44 45 46 47 48 49 50
000
ASUS43 KLMK 200102
RWRKY
KENTUCKY REGIONAL WEATHER ROUNDUP
NATIONAL WEATHER SERVICE LOUISVILLE KY
900 PM EDT WED JUL 19 2017

NOTE "FAIR" INDICATES FEW OR NO CLOUDS BELOW 12,000 FEET
WITH NO SIGNIFICANT WEATHER AND/OR OBSTRUCTIONS TO VISIBILITY.

KYZ001>023-026-027-061>063-070>075-200200-
WESTERN AND SOUTH CENTRAL KENTUCKY

CITY           SKY/WX    TMP DP  RH WIND       PRES   REMARKS
PADUCAH        CLEAR     86  73  65 S3        30.06S HX  93
HENDERSON      CLEAR     86  76  71 E3        30.06S HX  96
OWENSBORO      CLEAR     85  74  69 SE5       30.07F HX  92
HOPKINSVILLE   CLEAR     86  73  64 CALM      30.08S HX  94
BOWLING GREEN  CLEAR     85  73  67 S5        30.09S HX  91
GLASGOW        NOT AVBL
$$

KYZ024-025-028>034-038-045-046-053-200200-
NORTH CENTRAL KENTUCKY

CITY           SKY/WX    TMP DP  RH WIND       PRES   REMARKS
LOUISVILLE/SDF PTCLDY    86  69  56 NE7       30.07S HX  90
LOUISVILLE/LOU CLEAR     85  68  56 N3        30.08F
FORT KNOX      NOT AVBL
$$

KYZ035>037-039>044-047>052-055>060-089>105-200200-
NORTHEAST KENTUCKY

CITY           SKY/WX    TMP DP  RH WIND       PRES   REMARKS
LEXINGTON      CLEAR     83  65  54 CALM      30.11S
COVINGTON      PTCLDY    83  65  54 NW3       30.09S
FRANKFORT      CLEAR     80  66  62 CALM      30.08F
$$

KYZ054-064>069-076>088-106>120-200200-
SOUTHEAST KENTUCKY

CITY           SKY/WX    TMP DP  RH WIND       PRES   REMARKS
JACKSON        CLEAR     81  69  67 NW3       30.12S
LONDON         CLEAR     82  63  52 NW3       30.12S
SOMERSET       CLEAR     82  64  54 CALM      30.12S
MIDDLESBORO    PTCLDY    80  69  68 NW3       30.12S
MONTICELLO     CLEAR     77  73  87 CALM      30.13R
$$




USA.gov is the U.S. government's official web portal to all federal, state and local government web resources and services.